Location: Tel Aviv
(32.0670°N, 34.7670°E)
Time: 12:48:24
(UTC+03:00)

Explorer 11/Cluster Stage 4 - Pass Details

Date: 20 September 2024
Orbit: 464 x 1208 km, 28.8° (Epoch: 05 October)

Event Time Altitude Azimuth Distance (km) Brightness Sun altitude
Rises 10:27:57 0° 271° (W) 3,783 9.8 46.9°
Reaches altitude 10° 10:30:55 10° 261° (W) 2,927 9.3 47.3°
Maximum altitude 10:37:07 30° 204° (SSW) 1,971 9.2 48.3°
Drops below altitude 10° 10:43:44 10° 148° (SSE) 3,136 10.5 49.3°
Sets 10:47:02 0° 138° (SE) 4,095 10.9 49.8°
